User: anonymous   Login
Location: Caltech
(34.1382°N, 118.1253°W)
Time: 00:29:11
(UTC-08:00)
Language:

NOSS 3-1 (C) - Orbit

View from above orbital plane
View from above orbital plane
View from above satellite
View from above satellite

Ground track
Ground track

The orbit data is extracted from the following two-line orbital elements,

1 26907U 01040C   14328.13725247 0.00000000  00000-0  00000-0 0    01
2 26907  63.4213 259.1376 0289000 358.2155   1.7845 13.41211774    02
Epoch (UTC): 24 November 2014 03:17:38
Eccentricity: 0.0289000
inclination: 63.4213°
perigee height: 888 km
apogee height: 1321 km
right ascension of ascending node: 259.1376°
argument of perigee: 358.2155°
revolutions per day: 13.41211774
mean anomaly at epoch: 1.7845°
orbit number at epoch: 0

The dashed part of the orbit path shows where the satellite is in the earth's shadow,  

DLR